Weather History for Cape Town, South Africa

Change the Weather History Date:

Friday, October 5, 2012

  Actual Average Record
Temperature  
Mean Temperature 54 °F -  
Max Temperature 62 °F 70 °F 80 °F (2006)
Min Temperature 47 °F 52 °F 42 °F (1996)
Degree Days  
Heating Degree Days 10    
Growing Degree Days 4 (Base 50)    
Moisture  
Dew Point 39 °F    
Average Humidity 54    
Maximum Humidity 71    
Minimum Humidity 33    
Precipitation  
Precipitation 0.00 in 0.00 in - ()
Sea Level Pressure  
Sea Level Pressure 30.13 in    
Wind  
Wind Speed 7 mph ()    
Max Wind Speed 14 mph    
Max Gust Speed 24 mph    
Visibility 8.5 miles    
Events      
Averages and records for this station are not official NWS values.
T = Trace of Precipitation, MM = Missing Value Source: Averaged Metar Reports

Daily Weather History Graph

Daily Weather History Graph

Search for Another Location

Airport:

Trip Planner

Search our weather history database for the weather conditions in past years. The results will help you decide how hot, cold, wet, or windy it might be!

Date:

Astronomy

Oct. 05, 2012 Rise Set
Actual Time 6:16 AM SAST 6:51 PM SAST
Civil Twilight 5:51 AM SAST 7:16 PM SAST
Nautical Twilight 5:22 AM SAST 7:46 PM SAST
Astronomical Twilight 4:51 AM SAST 8:16 PM SAST
Moon 11:49 PM SAST (10/5) 9:21 AM SAST (10/5)
Length of Visible Light 13h 25m
Length of Day
12h 34m
Waning Gibbous, 76% of the Moon is Illuminated
Oct 5
Waning Gibbous
Oct 8
Last Quarter
Oct 15
New
Oct 22
First Quarter
Oct 29
Full

Hourly Weather History & Observations

Time (SAST) Temp. Dew Point Humidity Pressure Visibility Wind Dir Wind Speed Gust Speed Precip Events Conditions
12:00 AM 53.6 °F 42.8 °F 67% 30.18 in 6.2 mi South 6.9 mph - N/A   Mostly Cloudy
1:00 AM 53.6 °F 39.2 °F 58% 30.15 in 6.2 mi South 8.1 mph - N/A   Scattered Clouds
2:00 AM 49 °F 39 °F 60% 30.17 in 12 mi SSE 4.6 mph - -   Scattered Clouds
2:00 AM 48.2 °F 39.2 °F 71% 30.15 in 6.2 mi SSE 4.6 mph - N/A   Partly Cloudy
3:00 AM 50.0 °F 35.6 °F 58% 30.15 in 6.2 mi SSW 5.8 mph - N/A   Partly Cloudy
4:00 AM 48.2 °F 39.2 °F 71% 30.12 in 6.2 mi SSW 6.9 mph - N/A   Partly Cloudy
5:00 AM 49 °F 38 °F 56% 30.14 in 16 mi SSW 6.9 mph - -  
5:00 AM 48.2 °F 37.4 °F 66% 30.12 in - SSW 5.8 mph - N/A   Clear
6:00 AM 48.2 °F 37.4 °F 66% 30.12 in - SSW 6.9 mph - N/A   Clear
7:00 AM 48.2 °F 35.6 °F 62% 30.15 in - SSW 5.8 mph - N/A   Clear
8:00 AM 53 °F 37 °F 44% 30.17 in 25 mi SSW 5.8 mph - -   Partly Cloudy
8:00 AM 53.6 °F 37.4 °F 54% 30.15 in - SSW 5.8 mph - N/A   Clear
9:00 AM 55.4 °F 39.2 °F 54% 30.15 in - SE 4.6 mph - N/A   Clear
10:00 AM 57.2 °F 41.0 °F 55% 30.15 in 6.2 mi SSE 8.1 mph - N/A   Partly Cloudy
11:00 AM 59 °F 39 °F 36% 30.16 in 19 mi SE 9.2 mph - -   Scattered Clouds
11:00 AM 59.0 °F 39.2 °F 48% 30.15 in 6.2 mi SE 10.4 mph - N/A   Partly Cloudy
12:00 PM 60.8 °F 39.2 °F 45% 30.12 in 6.2 mi South 9.2 mph - N/A   Partly Cloudy
1:00 PM 60.8 °F 39.2 °F 45% 30.12 in 6.2 mi SSE 9.2 mph - N/A   Partly Cloudy
2:00 PM 62 °F 40 °F 33% 30.12 in 25 mi SSE 9.2 mph - -   Scattered Clouds
2:00 PM 60.8 °F 41.0 °F 48% 30.12 in 6.2 mi SSE 10.4 mph - N/A   Partly Cloudy
3:00 PM 60.8 °F 41.0 °F 48% 30.09 in 6.2 mi SSE 10.4 mph - N/A   Scattered Clouds
4:00 PM 60.8 °F 41.0 °F 48% 30.09 in 6.2 mi SSE 12.7 mph 24.2 mph N/A   Scattered Clouds
5:00 PM 60 °F 41 °F 39% 30.10 in 25 mi SSE 12.7 mph - -   Scattered Clouds
5:00 PM 59.0 °F 41.0 °F 51% 30.09 in 6.2 mi South 12.7 mph - N/A   Partly Cloudy
6:00 PM 57.2 °F 39.2 °F 51% 30.09 in 6.2 mi SSE 13.8 mph - N/A   Partly Cloudy
7:00 PM 55.4 °F 39.2 °F 54% 30.09 in 6.2 mi SSE 11.5 mph - N/A   Partly Cloudy
8:00 PM 54 °F 38 °F 43% 30.14 in 16 mi South 8.1 mph - -   Scattered Clouds
8:00 PM 53.6 °F 37.4 °F 54% 30.12 in 6.2 mi South 8.1 mph - N/A   Partly Cloudy
9:00 PM 53.6 °F 37.4 °F 54% 30.15 in - South 5.8 mph - N/A   Clear
10:00 PM 50.0 °F 37.4 °F 62% 30.12 in - South 3.5 mph - N/A   Clear
11:00 PM 49 °F 38 °F 57% 30.15 in 16 mi SW 3.5 mph - -  
11:00 PM 48.2 °F 39.2 °F 71% 30.15 in - SW 3.5 mph - N/A   Clear